Regional Weather Roundup
Issued by NWS

Home | Current Version | Previous Version | Graphics & Text | Print | Product List | Glossary On
Versions: 1 2 3 4 5 6 7 8 9 10 11 12 13 14 15 16 17 18 19 20 21 22 23 24 25 26 27 28 29 30 31 32 33 34 35 36 37 38 39 40 41 42 43 44 45 46 47 48 49 50
611
ASUS43 KLMK 190610
RWRKY
KENTUCKY REGIONAL WEATHER ROUNDUP
NATIONAL WEATHER SERVICE LOUISVILLE KY
100 AM EST SUN FEB 19 2017

NOTE "FAIR" INDICATES FEW OR NO CLOUDS BELOW 12,000 FEET
WITH NO SIGNIFICANT WEATHER AND/OR OBSTRUCTIONS TO VISIBILITY.

KYZ001>023-026-027-061>063-070>075-190700-
WESTERN AND SOUTH CENTRAL KENTUCKY

CITY           SKY/WX    TMP DP  RH WIND       PRES   REMARKS
PADUCAH        FOG       47  45  93 E3        29.95R VSB 1/4
HENDERSON      CLOUDY    48  45  87 CALM      29.95S
OWENSBORO      CLOUDY    49  48  97 S3        29.97R FOG
HOPKINSVILLE   CLOUDY    51  51 100 CALM      29.97R
BOWLING GREEN  PTCLDY    49  46  90 CALM      29.98R FOG
GLASGOW        MOCLDY    47  47 100 CALM      29.98R
$$

KYZ024-025-028>034-038-045-046-053-190700-
NORTH CENTRAL KENTUCKY

CITY           SKY/WX    TMP DP  RH WIND       PRES   REMARKS
LOUISVILLE/SDF CLOUDY    51  47  86 SW5       29.96R
LOUISVILLE/LOU CLOUDY    51  47  86 S5        29.96R
FORT KNOX      CLOUDY    48  48 100 S3        29.95R FOG
$$

KYZ035>037-039>044-047>052-055>060-089>105-190700-
NORTHEAST KENTUCKY

CITY           SKY/WX    TMP DP  RH WIND       PRES   REMARKS
LEXINGTON      LGT RAIN  47  44  90 SW6       29.97R
COVINGTON      CLOUDY    51  47  86 W8        29.93R
FRANKFORT      CLOUDY    48  45  89 SW5       29.95R FOG
$$

KYZ054-064>069-076>088-106>120-190700-
SOUTHEAST KENTUCKY

CITY           SKY/WX    TMP DP  RH WIND       PRES   REMARKS
JACKSON        CLOUDY    46  44  93 SW5       29.97R
LONDON         FOG       46  44  93 S3        29.98R VSB 1/2
SOMERSET       CLOUDY    43  43 100 CALM      30.00R FOG
MIDDLESBORO    CLOUDY    47  47 100 CALM      29.99R FOG
MONTICELLO     CLOUDY    44  44 100 NE10      30.00R FOG
$$





USA.gov is the U.S. government's official web portal to all federal, state and local government web resources and services.